Weather History for KBWP - September, 2012

Change the Weather History Date:

Friday, September 21, 2012

  Actual Average (KFFM) Record (KFFM)
Temperature  
Mean Temperature 50 °F -  
Max Temperature 62 °F 64 °F 81 °F (1959)
Min Temperature 37 °F 44 °F 30 °F (1974)
Degree Days  
Heating Degree Days 16    
Moisture  
Dew Point 32 °F    
Average Humidity 53    
Maximum Humidity 87    
Minimum Humidity 20    
Precipitation  
Precipitation 0.00 in - - ()
Sea Level Pressure  
Sea Level Pressure 29.90 in    
Wind  
Wind Speed 7 mph (NNW)    
Max Wind Speed 30 mph    
Max Gust Speed 40 mph    
Visibility 10 miles    
Events      
Averages and records for this station are not official NWS values.
T = Trace of Precipitation, MM = Missing Value Source: NWS Daily Summary

Daily Weather History Graph

Daily Weather History Graph

Search for Another Location

Airport or City:

Trip Planner

Search our weather history database for the weather conditions in past years. The results will help you decide how hot, cold, wet, or windy it might be!

Date:

Astronomy

Sep. 21, 2012 Rise Set
Actual Time 7:12 AM CDT 7:24 PM CDT
Civil Twilight 6:42 AM CDT 7:54 PM CDT
Nautical Twilight 6:07 AM CDT 8:30 PM CDT
Astronomical Twilight 5:31 AM CDT 9:06 PM CDT
Moon 1:56 PM CDT (9/21) 11:06 PM CDT (9/21)
Length of Visible Light 13h 12m
Length of Day
12h 12m
Waxing Crescent, 37% of the Moon is Illuminated
Sep 21
Waxing Crescent
Sep 22
First Quarter
Sep 29
Full
Oct 8
Last Quarter
Oct 15
New

Hourly Weather History & Observations

Time (CDT) Temp. Windchill Dew Point Humidity Pressure Visibility Wind Dir Wind Speed Gust Speed Precip Events Conditions
12:15 AM 50.0 °F - 39.2 °F 66% 29.89 in 10.0 mi Calm Calm - N/A   Clear
12:35 AM 50.0 °F - 37.4 °F 62% 29.88 in 10.0 mi Calm Calm - N/A   Clear
12:55 AM 48.2 °F - 39.2 °F 71% 29.87 in 10.0 mi SE 4.6 mph - N/A   Clear
1:15 AM 50.0 °F - 37.4 °F 62% 29.86 in 10.0 mi SSE 5.8 mph - N/A   Clear
1:35 AM 48.2 °F - 37.4 °F 66% 29.87 in 10.0 mi SSE 6.9 mph - N/A   Clear
1:55 AM 48.2 °F - 37.4 °F 66% 29.87 in 10.0 mi Calm Calm - N/A   Mostly Cloudy
2:15 AM 50.0 °F - 37.4 °F 62% 29.88 in 10.0 mi Calm Calm - N/A   Overcast
2:35 AM 50.0 °F - 37.4 °F 62% 29.87 in 10.0 mi Calm Calm - N/A   Overcast
2:55 AM 48.2 °F - 37.4 °F 66% 29.86 in 10.0 mi SE 4.6 mph - N/A   Mostly Cloudy
3:15 AM 46.4 °F 44.3 °F 37.4 °F 71% 29.86 in 10.0 mi SE 4.6 mph - N/A   Scattered Clouds
3:55 AM 46.4 °F - 37.4 °F 71% 29.86 in 10.0 mi Calm Calm - N/A   Mostly Cloudy
4:15 AM 46.4 °F - 39.2 °F 76% 29.86 in 10.0 mi Calm Calm - N/A   Overcast
4:35 AM 46.4 °F - 37.4 °F 71% 29.86 in 10.0 mi Calm Calm - N/A   Mostly Cloudy
4:55 AM 46.4 °F - 37.4 °F 71% 29.86 in 10.0 mi Calm Calm - N/A   Mostly Cloudy
5:15 AM 44.6 °F - 37.4 °F 76% 29.86 in 10.0 mi Calm Calm - N/A   Scattered Clouds
5:35 AM 46.4 °F - 39.2 °F 76% 29.86 in 10.0 mi Calm Calm - N/A   Clear
5:55 AM 44.6 °F - 37.4 °F 76% 29.85 in 10.0 mi Calm Calm - N/A   Clear
6:15 AM 44.6 °F 43.1 °F 37.4 °F 76% 29.86 in 10.0 mi North 3.5 mph - N/A   Clear
6:35 AM 44.6 °F 43.1 °F 39.2 °F 81% 29.87 in 10.0 mi NNE 3.5 mph - N/A   Clear
6:55 AM 44.6 °F 42.2 °F 41.0 °F 87% 29.87 in 10.0 mi North 4.6 mph - N/A   Mostly Cloudy
7:15 AM 44.6 °F - 37.4 °F 76% 29.87 in 10.0 mi Calm Calm - N/A   Mostly Cloudy
7:35 AM 42.8 °F 41.1 °F 35.6 °F 76% 29.87 in 10.0 mi WNW 3.5 mph - N/A   Scattered Clouds
7:55 AM 42.8 °F 39.3 °F 37.4 °F 81% 29.87 in 10.0 mi NW 5.8 mph - N/A   Scattered Clouds
8:15 AM 44.6 °F 43.1 °F 39.2 °F 81% 29.89 in 10.0 mi NNW 3.5 mph - N/A   Mostly Cloudy
8:35 AM 46.4 °F 44.3 °F 39.2 °F 76% 29.89 in 10.0 mi NNW 4.6 mph - N/A   Mostly Cloudy
8:55 AM 48.2 °F - 41.0 °F 76% 29.90 in 10.0 mi North 8.1 mph - N/A   Overcast
9:15 AM 50.0 °F - 41.0 °F 71% 29.90 in 10.0 mi North 8.1 mph - N/A   Mostly Cloudy
9:35 AM 51.8 °F - 41.0 °F 67% 29.91 in 10.0 mi NNW 9.2 mph - N/A   Mostly Cloudy
9:55 AM 51.8 °F - 39.2 °F 62% 29.91 in 10.0 mi North 10.4 mph - N/A   Overcast
10:15 AM 51.8 °F - 41.0 °F 67% 29.92 in 10.0 mi North 8.1 mph - N/A   Mostly Cloudy
10:35 AM 51.8 °F - 39.2 °F 62% 29.92 in 10.0 mi North 8.1 mph - N/A   Mostly Cloudy
10:55 AM 53.6 °F - 41.0 °F 62% 29.92 in 10.0 mi NNW 5.8 mph - N/A   Mostly Cloudy
11:15 AM 55.4 °F - 39.2 °F 54% 29.91 in 10.0 mi North 5.8 mph - N/A   Scattered Clouds
11:35 AM 55.4 °F - 37.4 °F 51% 29.91 in 10.0 mi NW 6.9 mph - N/A   Clear
11:55 AM 55.4 °F - 37.4 °F 51% 29.91 in 10.0 mi North 6.9 mph - N/A   Scattered Clouds
12:15 PM 57.2 °F - 35.6 °F 44% 29.91 in 10.0 mi North 10.4 mph - N/A   Mostly Cloudy
12:35 PM 59.0 °F - 37.4 °F 45% 29.90 in 10.0 mi NW 10.4 mph 19.6 mph N/A   Scattered Clouds
12:55 PM 59.0 °F - 35.6 °F 42% 29.88 in 10.0 mi NNW 12.7 mph 18.4 mph N/A   Scattered Clouds
1:15 PM 60.8 °F - 33.8 °F 36% 29.89 in 10.0 mi NW 10.4 mph 17.3 mph N/A   Scattered Clouds
1:35 PM 60.8 °F - 32.0 °F 34% 29.88 in 10.0 mi NW 12.7 mph 18.4 mph N/A   Scattered Clouds
1:55 PM 60.8 °F - 32.0 °F 34% 29.87 in 10.0 mi NNW 11.5 mph 17.3 mph N/A   Clear
2:15 PM 60.8 °F - 32.0 °F 34% 29.87 in 10.0 mi NW 12.7 mph 17.3 mph N/A   Clear
2:35 PM 62.6 °F - 30.2 °F 30% 29.86 in 10.0 mi NNW 13.8 mph 17.3 mph N/A   Clear
2:55 PM 62.6 °F - 30.2 °F 30% 29.86 in 10.0 mi NW 11.5 mph 20.7 mph N/A   Clear
3:15 PM 62.6 °F - 28.4 °F 27% 29.85 in 10.0 mi NNW 9.2 mph 18.4 mph N/A   Scattered Clouds
3:35 PM 62.6 °F - 26.6 °F 26% 29.84 in 10.0 mi NNW 12.7 mph 21.9 mph N/A   Scattered Clouds
3:55 PM 62.6 °F - 26.6 °F 26% 29.84 in 10.0 mi NW 17.3 mph 29.9 mph N/A   Mostly Cloudy
4:15 PM 62.6 °F - 24.8 °F 24% 29.84 in 10.0 mi NW 18.4 mph 29.9 mph N/A   Overcast
4:35 PM 62.6 °F - 24.8 °F 24% 29.84 in 10.0 mi NNW 13.8 mph 23.0 mph N/A   Overcast
4:55 PM 62.6 °F - 24.8 °F 24% 29.84 in 10.0 mi NW 16.1 mph 23.0 mph N/A   Overcast
5:15 PM 62.6 °F - 24.8 °F 24% 29.84 in 10.0 mi NNW 19.6 mph 33.4 mph N/A   Mostly Cloudy
5:35 PM 62.6 °F - 21.2 °F 20% 29.84 in 10.0 mi NNW 19.6 mph 28.8 mph N/A   Mostly Cloudy
5:55 PM 62.6 °F - 23.0 °F 22% 29.84 in 10.0 mi NW 21.9 mph 29.9 mph N/A   Mostly Cloudy
6:15 PM 60.8 °F - 24.8 °F 25% 29.84 in 10.0 mi NW 18.4 mph 29.9 mph N/A   Mostly Cloudy
6:35 PM 60.8 °F - 23.0 °F 23% 29.85 in 10.0 mi NNW 19.6 mph 28.8 mph N/A   Mostly Cloudy
6:55 PM 53.6 °F - 33.8 °F 47% 29.89 in 10.0 mi North 26.5 mph 36.8 mph N/A   Mostly Cloudy
7:15 PM 50.0 °F - 33.8 °F 54% 29.92 in 10.0 mi North 29.9 mph 38.0 mph N/A   Mostly Cloudy
7:35 PM 48.2 °F - 32.0 °F 54% 29.94 in 10.0 mi North 29.9 mph 38.0 mph N/A   Mostly Cloudy
7:55 PM 46.4 °F 37.9 °F 30.2 °F 53% 29.96 in 10.0 mi North 25.3 mph 38.0 mph N/A   Overcast
8:15 PM 46.4 °F 37.5 °F 26.6 °F 46% 29.98 in 10.0 mi North 27.6 mph 38.0 mph N/A   Overcast
8:35 PM 46.4 °F 39.0 °F 23.0 °F 40% 29.99 in 10.0 mi North 19.6 mph 34.5 mph N/A   Overcast
8:55 PM 44.6 °F 36.4 °F 23.0 °F 43% 30.00 in 10.0 mi North 20.7 mph 31.1 mph N/A   Scattered Clouds
9:15 PM 44.6 °F 35.1 °F 17.6 °F 34% 30.01 in 10.0 mi North 27.6 mph 40.3 mph N/A   Clear
9:35 PM 42.8 °F 33.1 °F 15.8 °F 34% 30.02 in 10.0 mi North 25.3 mph 39.1 mph N/A   Clear
9:55 PM 41.0 °F 31.4 °F 17.6 °F 39% 30.03 in 10.0 mi North 21.9 mph 28.8 mph N/A   Clear
10:15 PM 41.0 °F 31.9 °F 19.4 °F 42% 30.04 in 10.0 mi North 19.6 mph 25.3 mph N/A   Clear
10:35 PM 41.0 °F 33.5 °F 21.2 °F 45% 30.05 in 10.0 mi NNW 13.8 mph 23.0 mph N/A   Clear
10:55 PM 41.0 °F 33.9 °F 21.2 °F 45% 30.06 in 10.0 mi NNW 12.7 mph 19.6 mph N/A   Clear
11:15 PM 37.4 °F 29.8 °F 21.2 °F 52% 30.06 in 10.0 mi NW 11.5 mph - N/A   Clear
11:35 PM 37.4 °F 28.9 °F 23.0 °F 56% 30.07 in 10.0 mi NW 13.8 mph 18.4 mph N/A   Clear
11:55 PM 37.4 °F 28.5 °F 23.0 °F 56% 30.07 in 10.0 mi NNW 15.0 mph - N/A   Clear